Miscellaneous Local Product
Issued by NWS Hastings, NE

Home | Current Version | Previous Version | Text Only | Print | Product List | Glossary On
Versions: 1 2 3 4 5 6 7 8 9 10 11 12 13 14 15 16 17 18 19 20 21 22 23 24 25 26 27 28 29 30 31 32 33 34 35 36 37 38 39 40 41 42 43 44 45 46 47 48 49 50
731
AXUS43 KGID 180402
MISGRI

GID CWA HOURLY WEATHER ROUNDUP
NATIONAL WEATHER SERVICE HASTINGS NE
1000 PM CST SUN FEB 17 2019

NOTE: "FAIR" INDICATES FEW OR NO CLOUDS BELOW 12,000 FEET WITH NO
SIGNIFICANT WEATHER AND/OR OBSTRUCTIONS TO VISIBILITY.

...SOUTH CENTRAL NEBRASKA...

CITY           SKY/WX    TMP DP  RH WIND       PRES   REMARKS
GRAND ISLAND   CLEAR     10   4  76 NW13      30.22R WCI  -5
KEARNEY        CLEAR      5   1  83 NW10      30.23R WCI -10
HASTINGS       CLEAR     10   4  76 NW18      30.21R WCI  -8
ORD            FAIR       9   4  80 NW10      30.22R WCI  -5
YORK           CLEAR      9   5  85 NW13      30.20R WCI  -7
AURORA         CLEAR      8   4  82 NW10      30.21R WCI  -6
LEXINGTON      FAIR       6   0  75 NW12      30.23R WCI -10
HOLDREGE       CLEAR      7   2  81 NW13      30.22R WCI  -9
HEBRON         CLEAR     13   8  78 NW8       30.23R WCI   2

...NEBRASKA PANHANDLE...

CITY           SKY/WX    TMP DP  RH WIND       PRES   REMARKS
CHADRON        LGT SNOW   5   0  79 CALM      30.25R
ALLIANCE       FAIR       1  -2  87 N9        30.16R WCI -14
SCOTTSBLUFF    FAIR       3  -3  76 NE9       30.18R WCI -12
SIDNEY         FAIR       4  -3  73 N12       30.13R WCI -12

...WESTERN AND NORTH CENTRAL NEBRASKA...

CITY           SKY/WX    TMP DP  RH WIND       PRES   REMARKS
VALENTINE      CLOUDY     8   1  73 NW12      30.24R HAZE    WCI  -7
AINSWORTH      CLOUDY     8   4  84 NW14G20   30.22R FOG     WCI  -9
ONEILL         LGT SNOW  13   9  84 NW15      30.22R WCI  -3
BROKEN BOW     FAIR       8   1  73 NW18      30.20R WCI -11
IMPERIAL       FAIR       3  -4  72 N6        30.20R WCI  -8
NORTH PLATTE   FAIR       3  -3  76 NW12      30.23R WCI -13
MCCOOK         FAIR       7   0  73 NW13      30.24R WCI  -9

...EASTERN NEBRASKA...

CITY           SKY/WX    TMP DP  RH WIND       PRES   REMARKS
NORFOLK        LGT SNOW  14  11  87 NW18      30.18R FOG     WCI  -3
SO SIOUX CITY  LGT SNOW  16  13  88 NW15      30.18R FOG     WCI   1
TEKAMAH        LGT SNOW  14  12  92 NW12      30.18R FOG     WCI   0
COLUMBUS       FLURRIES  15  11  83 NW17G23   30.21R WCI  -1
ALBION         CLOUDY    14   9  79 NW18      30.20R WCI  -3
OMAHA EPPLEY   LGT SNOW  18  13  80 NW10      30.16R WCI   6
OFFUTT AFB     PTCLDY    19  19 100 W8        30.16R WCI   8
MILLARD        PTCLDY    20  16  83 NW9       30.18R WCI  10
LINCOLN        PTCLDY    16  10  77 NW12      30.21R WCI   3
NEBRASKA CITY  CLOUDY    19  15  82 NW14      30.16R WCI   6
BEATRICE       CLEAR     13  10  87 W9        30.20R WCI   1
FALLS CITY     CLOUDY    18  13  80 NW13      30.17R WCI   5

...NORTHERN KANSAS...

CITY           SKY/WX    TMP DP  RH WIND       PRES   REMARKS
GOODLAND       FAIR       9   2  73 N13       30.12R WCI  -7
HILL CITY      CLEAR     14   6  70 N12       30.24R WCI   0
NORTON         CLEAR      9   3  77 N10       30.27R WCI  -5
PHILLIPSBURG   CLEAR     14   5  67 NW17      30.26R WCI  -3
OBERLIN        FAIR       9   2  75 N12       30.26S WCI  -6
SMITH CENTER   CLOUDY     9   4  80 NW13      30.25R WCI  -7
HAYS           CLEAR     15  10  80 N17       30.22R WCI  -1
RUSSELL        CLEAR     14   9  80 N14       30.22R WCI  -1
CONCORDIA      CLEAR     15   7  70 NW12      30.23R WCI   2
SALINA         CLEAR     18  10  71 NW15      30.24R WCI   4
TOPEKA         CLEAR     20  11  68 NW13      30.20R WCI   7



USA.gov is the U.S. government's official web portal to all federal, state and local government web resources and services.